• In Netherlands
  • List of Countries
  • For 7 days
  • Water Temperature
  • Satellite Maps
  • Weather Map
  • Weather Widgets
  • user-avatar
    Login

    Hourly Weather Wien

    Today, 28 June, Wednesday

    Time Temperature Precipitation Wind Pressure Humidity
    00:00 +19°C° 0 mm 3 mps 737 mmHg 75%
    01:00 +19°C° 0 mm 2 mps 736 mmHg 79%
    02:00 +19°C° 0 mm 3 mps 736 mmHg 79%
    03:00 +19°C° 0 mm 3 mps 736 mmHg 79%
    04:00 +18°C° 0 mm 3 mps 735 mmHg 80%
    05:00 +20°C° 0 mm 3 mps 735 mmHg 74%
    06:00 +22°C° 0 mm 4 mps 735 mmHg 68%
    07:00 +25°C° 0 mm 5 mps 734 mmHg 62%
    08:00 +27°C° 0 mm 6 mps 734 mmHg 56%
    09:00 +29°C° 0 mm 7 mps 734 mmHg 50%
    10:00 +32°C° 0 mm 8 mps 733 mmHg 43%
    11:00 +33°C° 0 mm 8 mps 733 mmHg 41%
    12:00 +34°C° 0 mm 8 mps 732 mmHg 40%
    13:00 +35°C° 0 mm 8 mps 732 mmHg 38%
    14:00 +35°C° 0 mm 8 mps 732 mmHg 40%
    15:00 +34°C° 0 mm 8 mps 731 mmHg 42%
    16:00 +34°C° 0 mm 8 mps 731 mmHg 43%
    17:00 +32°C° 0.1 mm 7 mps 731 mmHg 50%
    18:00 +29°C° 0.1 mm 5 mps 731 mmHg 56%
    19:00 +27°C° 0.1 mm 4 mps 731 mmHg 62%
    20:00 +26°C° 0.4 mm 5 mps 731 mmHg 66%
    21:00 +24°C° 0.4 mm 6 mps 731 mmHg 70%
    22:00 +22°C° 0.4 mm 7 mps 731 mmHg 74%
    23:00 +22°C° 0 mm 6 mps 731 mmHg 75%

    Tomorrow, 29 June, Thursday

    Time Temperature Precipitation Wind Pressure Humidity
    00:00 +21°C° 0 mm 5 mps 730 mmHg 76%
    01:00 +21°C° 0 mm 4 mps 729 mmHg 77%
    02:00 +21°C° 0 mm 5 mps 729 mmHg 79%
    03:00 +20°C° 0 mm 5 mps 729 mmHg 80%
    04:00 +20°C° 0 mm 5 mps 729 mmHg 82%
    05:00 +21°C° 0 mm 5 mps 729 mmHg 80%
    06:00 +22°C° 0 mm 5 mps 729 mmHg 78%
    07:00 +22°C° 0 mm 5 mps 729 mmHg 76%
    08:00 +23°C° 0.3 mm 5 mps 729 mmHg 71%
    09:00 +25°C° 0.3 mm 5 mps 729 mmHg 66%
    10:00 +26°C° 0.3 mm 6 mps 730 mmHg 61%
    11:00 +26°C° 0.8 mm 6 mps 730 mmHg 60%
    12:00 +26°C° 0.8 mm 6 mps 731 mmHg 59%
    13:00 +26°C° 0.8 mm 6 mps 731 mmHg 58%
    14:00 +26°C° 0.2 mm 6 mps 731 mmHg 56%
    15:00 +26°C° 0.2 mm 5 mps 732 mmHg 54%
    16:00 +26°C° 0.2 mm 4 mps 732 mmHg 53%
    17:00 +25°C° 0.1 mm 3 mps 732 mmHg 58%
    18:00 +24°C° 0.1 mm 3 mps 732 mmHg 63%
    19:00 +23°C° 0.1 mm 2 mps 732 mmHg 68%
    20:00 +21°C° 0 mm 2 mps 733 mmHg 71%
    21:00 +20°C° 0 mm 2 mps 733 mmHg 74%
    22:00 +18°C° 0 mm 2 mps 733 mmHg 76%
    23:00 +18°C° 0 mm 2 mps 734 mmHg 79%

    Day after tomorrow, 30 June, Friday

    Time Temperature Precipitation Wind Pressure Humidity
    00:00 +18°C° 0 mm 1 mps 734 mmHg 82%
    01:00 +16°C° 0 mm 1 mps 734 mmHg 85%
    02:00 +16°C° 0 mm 1 mps 734 mmHg 84%
    03:00 +16°C° 0 mm 2 mps 735 mmHg 84%
    04:00 +16°C° 0 mm 2 mps 735 mmHg 83%
    05:00 +17°C° 0 mm 2 mps 735 mmHg 78%
    06:00 +18°C° 0 mm 3 mps 736 mmHg 74%
    07:00 +19°C° 0 mm 3 mps 736 mmHg 69%
    08:00 +20°C° 0 mm 3 mps 736 mmHg 65%
    09:00 +21°C° 0 mm 4 mps 737 mmHg 62%
    10:00 +22°C° 0 mm 4 mps 737 mmHg 58%
    11:00 +22°C° 0.1 mm 4 mps 737 mmHg 57%
    12:00 +21°C° 0.1 mm 4 mps 738 mmHg 57%
    13:00 +21°C° 0.1 mm 5 mps 738 mmHg 56%
    14:00 +22°C° 0.1 mm 4 mps 738 mmHg 52%
    15:00 +24°C° 0.1 mm 3 mps 738 mmHg 49%
    16:00 +25°C° 0.1 mm 2 mps 737 mmHg 45%
    17:00 +24°C° 0 mm 2 mps 737 mmHg 50%
    18:00 +23°C° 0 mm 2 mps 737 mmHg 56%
    19:00 +21°C° 0 mm 2 mps 737 mmHg 61%
    20:00 +20°C° 0 mm 1 mps 738 mmHg 64%
    21:00 +19°C° 0 mm 1 mps 738 mmHg 68%
    22:00 +18°C° 0 mm 1 mps 738 mmHg 71%
    23:00 +18°C° 0 mm 1 mps 738 mmHg 71%

    1 July, Saturday

    Time Temperature Precipitation Wind Pressure Humidity
    00:00 +18°C° 0 mm 1 mps 738 mmHg 70%
    01:00 +18°C° 0 mm 1 mps 737 mmHg 70%
    02:00 +16°C° 0.2 mm 2 mps 737 mmHg 74%
    03:00 +16°C° 0.2 mm 2 mps 737 mmHg 77%
    04:00 +16°C° 0.2 mm 2 mps 737 mmHg 81%
    05:00 +16°C° 0.6 mm 3 mps 738 mmHg 83%
    06:00 +15°C° 0.6 mm 4 mps 738 mmHg 84%
    07:00 +15°C° 0.6 mm 5 mps 738 mmHg 85%
    08:00 +16°C° 0.5 mm 5 mps 739 mmHg 81%
    09:00 +16°C° 0.5 mm 5 mps 739 mmHg 78%
    10:00 +17°C° 0.5 mm 5 mps 739 mmHg 74%
    11:00 +20°C° 0 mm 5 mps 739 mmHg 65%
    12:00 +22°C° 0 mm 4 mps 739 mmHg 56%
    13:00 +25°C° 0 mm 4 mps 739 mmHg 47%
    14:00 +25°C° 0.1 mm 4 mps 739 mmHg 46%
    15:00 +25°C° 0.1 mm 3 mps 739 mmHg 45%
    16:00 +26°C° 0.1 mm 3 mps 739 mmHg 44%
    17:00 +24°C° 0.1 mm 3 mps 739 mmHg 51%
    18:00 +23°C° 0.1 mm 2 mps 739 mmHg 58%
    19:00 +21°C° 0.1 mm 2 mps 739 mmHg 65%
    20:00 +20°C° 0.3 mm 3 mps 740 mmHg 70%
    21:00 +18°C° 0.3 mm 4 mps 740 mmHg 75%
    22:00 +16°C° 0.3 mm 5 mps 741 mmHg 80%
    23:00 +16°C° 0.2 mm 5 mps 741 mmHg 81%

    2 July, Sunday

    Time Temperature Precipitation Wind Pressure Humidity
    00:00 +15°C° 0.2 mm 5 mps 741 mmHg 82%
    01:00 +15°C° 0.2 mm 5 mps 741 mmHg 83%
    02:00 +14°C° 0 mm 5 mps 741 mmHg 83%
    03:00 +14°C° 0 mm 6 mps 742 mmHg 84%
    04:00 +13°C° 0 mm 6 mps 742 mmHg 85%
    05:00 +14°C° 0 mm 7 mps 742 mmHg 81%
    06:00 +15°C° 0 mm 8 mps 743 mmHg 76%
    07:00 +15°C° 0 mm 8 mps 743 mmHg 72%
    08:00 +16°C° 0 mm 9 mps 744 mmHg 66%
    09:00 +17°C° 0 mm 9 mps 744 mmHg 60%
    10:00 +17°C° 0 mm 9 mps 744 mmHg 54%
    11:00 +18°C° 0 mm 9 mps 744 mmHg 52%
    12:00 +20°C° 0 mm 8 mps 744 mmHg 49%
    13:00 +21°C° 0 mm 8 mps 744 mmHg 46%
    14:00 +21°C° 0 mm 8 mps 744 mmHg 47%
    15:00 +22°C° 0 mm 8 mps 744 mmHg 47%
    16:00 +22°C° 0 mm 8 mps 744 mmHg 48%
    17:00 +21°C° 0 mm 7 mps 744 mmHg 53%
    18:00 +20°C° 0 mm 6 mps 744 mmHg 57%
    19:00 +19°C° 0 mm 5 mps 744 mmHg 62%
    20:00 +17°C° 0 mm 5 mps 744 mmHg 65%
    21:00 +16°C° 0 mm 5 mps 744 mmHg 68%
    22:00 +16°C° 0 mm 5 mps 745 mmHg 71%
    23:00 +15°C° 0 mm 5 mps 745 mmHg 74%

    3 July, Monday

    Time Temperature Precipitation Wind Pressure Humidity
    00:00 +15°C° 0 mm 5 mps 745 mmHg 77%
    01:00 +14°C° 0 mm 4 mps 745 mmHg 80%
    02:00 +14°C° 0 mm 4 mps 745 mmHg 83%
    03:00 +13°C° 0 mm 4 mps 745 mmHg 86%
    04:00 +13°C° 0 mm 3 mps 745 mmHg 88%
    05:00 +15°C° 0 mm 4 mps 745 mmHg 83%
    06:00 +17°C° 0 mm 4 mps 745 mmHg 77%
    07:00 +17°C° 0 mm 5 mps 745 mmHg 71%
    08:00 +19°C° 0.2 mm 5 mps 745 mmHg 69%
    09:00 +20°C° 0.2 mm 5 mps 745 mmHg 67%
    10:00 +21°C° 0.2 mm 6 mps 745 mmHg 65%
    11:00 +22°C° 0.2 mm 6 mps 745 mmHg 61%
    12:00 +22°C° 0.2 mm 6 mps 745 mmHg 57%
    13:00 +23°C° 0.2 mm 6 mps 745 mmHg 53%
    14:00 +23°C° 0.1 mm 6 mps 744 mmHg 52%
    15:00 +24°C° 0.1 mm 6 mps 744 mmHg 50%
    16:00 +24°C° 0.1 mm 6 mps 744 mmHg 48%
    17:00 +22°C° 0.1 mm 5 mps 744 mmHg 55%
    18:00 +21°C° 0.1 mm 4 mps 744 mmHg 62%
    19:00 +20°C° 0.1 mm 3 mps 745 mmHg 68%
    20:00 +18°C° 0.1 mm 3 mps 745 mmHg 74%
    21:00 +16°C° 0.1 mm 3 mps 745 mmHg 81%
    22:00 +14°C° 0.1 mm 3 mps 745 mmHg 87%
    23:00 +13°C° 0 mm 3 mps 746 mmHg 87%
    Show more